#timestamp,LO_Frequency,Hit,StdDev 
1458946815.2,286046998.3,N
1458946835.1,286046999.2,N
1458946836.0,286046999.2,N
1458946855.8,286047001.1,N
1458946875.6,286046999.5,N
1458946895.5,286047000.7,N
1458946915.3,286046999.5,N
1458946935.1,286046995.2,N
1458946955.9,286046997.3,N
1458946975.7,286046998.2,N
1458946995.5,286046999.5,N
1458947015.4,286046998.4,N
1458947035.2,286046999.0,N
1458947055.0,286047001.0,N
1458947055.9,286047001.0,N
1458947075.8,286046998.4,N
1458947095.6,286046998.9,N
1458947115.4,286047000.5,N
1458947135.3,286047002.8,N
1458947155.1,286046998.6,N
1458947156.0,286046998.6,N
1458947175.8,286047001.2,N
1458947195.7,286046998.2,N
1458947215.5,286046999.9,N
1458947235.3,286047001.2,N
1458947255.1,286046999.7,N
1458947275.9,286046998.2,N
1458947295.7,286046999.1,N
1458947315.5,286046999.0,N
1458947335.4,286046998.2,N
1458947355.2,286046998.5,N
1458947375.0,286046998.7,N
1458947375.9,286046998.7,N
1458947395.8,286046998.2,N
1458947415.6,286046994.9,Y
1458947435.4,286047002.4,P
1458947455.3,286047000.1,N
1458947475.1,286047001.6,N
1458947495.8,286047002.3,N
1458947515.7,286046998.6,N
1458947535.5,286047000.1,N
1458947555.3,286047002.5,N
1458947575.2,286046999.1,N
1458947595.9,286046998.3,N
1458947615.7,286046997.4,N
1458947635.6,286046997.9,N
1458947655.4,286046995.2,N
1458947675.2,286046995.6,N
1458947695.0,286046994.6,N
1458947695.9,286046994.6,N
1458947715.8,286046990.5,Y
1458947735.6,286046991.7,P
1458947755.4,286046993.5,N
1458947775.3,286046994.4,N
1458947795.1,286046993.6,N
1458947815.8,286046995.7,N
1458947835.7,286046993.9,N
1458947855.5,286046994.5,N
1458947875.3,286046995.3,N
1458947895.2,286046993.3,Y
1458947915.0,286047002.0,P
1458947915.9,286047002.0,N
1458947935.7,286047000.3,N
1458947955.6,286046999.4,N
1458947975.4,286046998.6,N
1458947995.2,286047001.2,N
1458948015.1,286047000.0,N
1458948016.0,286047000.0,N
1458948035.8,286047000.7,N
1458948055.6,286047000.1,N
1458948075.5,286046998.4,N
1458948095.3,286046999.7,N
1458948115.1,286047001.8,N
1458948135.9,286047003.2,N
1458948155.7,286047007.6,Y
1458948175.5,286047005.3,P
1458948195.4,286047006.0,N
1458948215.2,286047001.8,N
1458948235.0,286047000.1,N
1458948235.9,286047000.1,N
1458948255.8,286047002.5,N
1458948275.6,286047000.2,N
1458948295.4,286047002.8,N
1458948315.2,286047003.9,N
1458948335.1,286047004.4,N
1458948336.0,286047004.4,N
1458948355.8,286047003.3,N
1458948375.6,286047005.7,N
1458948395.5,286047004.7,N
1458948415.3,286047006.7,Y
1458948435.1,286047003.2,P
1458948455.9,286047005.5,P
1458948475.7,286047007.8,P
1458948495.5,286047008.3,Y
1458948515.4,286047004.2,P
1458948535.2,286047001.3,P
1458948555.0,286046999.3,N
1458948555.9,286046999.3,N
1458948575.8,286046997.0,N
1458948595.6,286046998.4,N
1458948615.4,286047000.9,N
1458948635.3,286047005.5,N
1458948655.1,286047003.8,N
1458948656.0,286047003.8,N
1458948675.8,286047005.5,N
1458948695.7,286047005.1,N
1458948715.5,286047008.3,N
1458948735.3,286047009.2,N
1458948755.1,286047008.0,N
1458948775.9,286047006.1,N
1458948795.7,286047010.8,Y
1458948815.5,286047004.5,P
1458948835.4,286047007.3,P
1458948855.2,286047009.2,P
1458948875.0,286047005.4,N
1458948875.9,286047005.4,N
1458948895.8,286047004.9,N
1458948915.6,286047005.4,Y
1458948935.4,286046995.1,P
1458948955.3,286046995.5,N
1458948975.1,286046996.1,N
1458948995.8,286046994.7,N
1458949015.7,286046994.8,N
1458949035.5,286046992.8,N
1458949055.3,286046992.9,N
1458949075.2,286046988.8,N
1458949095.9,286046991.5,N
1458949115.7,286046993.2,N
1458949135.6,286046988.9,N
1458949155.4,286046992.7,N
1458949175.2,286046991.1,N
1458949195.1,286046991.4,N
1458949196.0,286046991.4,N
1458949215.8,286046989.3,N
1458949235.6,286046987.2,Y
1458949255.5,286046994.2,P
1458949275.3,286046992.8,P
1458949295.1,286046990.5,P
1458949315.9,286046992.7,Y
1458949335.7,286046999.3,P
1458949355.5,286046998.3,N
1458949375.4,286046996.8,N
1458949395.2,286046997.3,N
1458949415.0,286046997.0,N
1458949415.9,286046997.0,N
1458949435.7,286046995.7,N
1458949455.6,286046992.7,Y
1458949475.4,286046995.4,P
1458949495.2,286046995.9,P
1458949515.1,286046995.5,P
1458949516.0,286046995.5,Y
1458949535.8,286046998.2,P
1458949555.7,286046995.3,P
1458949575.5,286046995.1,P
1458949595.3,286046997.3,N
1458949615.2,286046994.1,Y
1458949635.9,286046999.6,P
1458949655.7,286047000.8,N
1458949675.5,286046999.4,N
1458949695.4,286046998.9,N
1458949715.2,286047000.9,N
1458949735.0,286046999.7,N
1458949735.9,286046999.7,N
1458949755.8,286047000.1,N
1458949775.6,286046999.0,N
1458949795.4,286046998.0,N
1458949815.3,286046993.5,Y
1458949835.1,286046993.4,P
1458949855.8,286046996.1,N
1458949875.7,286046996.8,N
1458949895.5,286046998.4,N
1458949915.3,286046998.1,N
1458949935.2,286047001.4,N
1458949955.9,286047005.4,N
1458949975.7,286047003.3,N
1458949995.6,286047001.3,N
1458950015.4,286047006.9,N
1458950035.2,286047006.2,N
1458950055.0,286047005.3,N
1458950056.0,286047005.3,N
1458950075.8,286047004.6,N
1458950095.6,286047004.3,N
1458950115.4,286046999.9,N
1458950135.3,286047004.3,N
1458950155.1,286047005.1,N
1458950175.8,286047008.9,N
1458950195.7,286047010.8,N
1458950215.5,286047009.0,N
1458950235.3,286047010.2,N
1458950255.2,286047008.5,N
1458950275.9,286047006.1,N
1458950295.7,286047008.4,N
1458950315.6,286047012.2,N
1458950335.4,286047009.8,N
1458950355.2,286047013.5,N
1458950375.0,286047013.3,N
1458950375.9,286047013.3,N
1458950395.8,286047014.1,N
